Home   Weather   Lanchow   Past weeks

Flag for China Past Weather in Lanchow, Gansu, China — Yesterday and Last 2 Weeks

Now
37 °F

Passing clouds.


Feels Like: 35 °F
Forecast: 16 / 44 °F
Wind: 3 mph from Southeast

Location: Lanzhou / Zhongchuan

Current Time: Dec 8, 2016 at 12:07:08 pm

Latest Report: Dec 8, 2016 at 11:00 am


Visibility: N/A

Pressure: 30.09 "Hg (24.90 "Hg at 1531m altitude)

Humidity: 33%

Dew Point: 10 °F

Location of LanchowLocation

Past Weather in Lanchow — Graph

°F

Lanchow Temperature Yesterday

Maximum temperature yesterday: 48 °F (at 4:00 pm)
Minimum temperature yesterday: 16 °F (at 7:00 am)
Average temperature yesterday: 30 °F

High & Low Weather Summary for the Past Weeks

 TemperatureHumidityPressure
High52 °F (Dec 4, 3:00 pm)85% (Nov 26, 5:00 am)30.57 "Hg (Nov 26, 5:00 am)
Low9 °F (Nov 26, 5:00 am)15% (Dec 4, 4:00 pm)30.01 "Hg (Dec 4, 2:00 pm)
Average26 °F52%30.27 "Hg
* Reported Nov 23 10:00 am — Dec 8 10:00 am, Lanchow, Weather by CustomWeather, © 2016

Note: Actual official high and low records may vary slightly from our data, if they occured in-between our weather recording intervals... More about our weather records

Advertising

Lanchow Weather History for the Previous 24 Hours

Scroll right to see more
 ConditionsComfort  
Time TempWeatherWind HumidityBarometerVisibility
10:00 am
Thu, Dec 8
34 °FSunny.1 mph38%30.09 "Hg10 mi
9:00 am23 °FClear.3 mph63%30.09 "Hg10 mi
8:00 am19 °FClear.6 mph68%30.09 "Hg10 mi
7:00 am18 °FClear.6 mph68%30.09 "Hg10 mi
6:00 am19 °FClear.3 mph68%30.09 "Hg10 mi
5:00 am18 °FClear.3 mph73%30.09 "Hg10 mi
4:00 am21 °FClear.1 mph63%30.12 "Hg10 mi
3:00 am23 °FClear.1 mph63%30.09 "Hg10 mi
2:00 am25 °FClear.3 mph59%30.09 "Hg10 mi
1:00 am21 °FClear.3 mph63%30.12 "Hg10 mi
12:00 am25 °FClear.3 mph59%30.12 "Hg10 mi
11:00 pm
Wed, Dec 7
23 °FClear.6 mph63%30.12 "Hg4 mi
10:00 pm23 °FClear.6 mph63%30.12 "Hg3 mi
9:00 pm25 °FClear.8 mph59%30.15 "Hg3 mi
8:00 pm30 °FClear.3 mph51%30.15 "Hg3 mi
7:00 pm34 °FClear.No wind41%30.15 "Hg4 mi
6:00 pm39 °FClear.3 mph36%30.18 "Hg4 mi
5:00 pm46 °FSunny.3 mph27%30.18 "Hg10 mi
4:00 pm48 °FPassing clouds.6 mph25%30.18 "HgN/A
3:00 pm46 °FPassing clouds.6 mph25%30.21 "HgN/A
2:00 pm46 °FPassing clouds.8 mph27%30.21 "HgN/A
1:00 pm45 °FSunny.6 mph29%30.24 "Hg10 mi
12:00 pm41 °FPassing clouds.6 mph33%30.30 "HgN/A
Weather by CustomWeather, © 2016

See weather overviewHow to use our weather pages